Regional Weather Roundup
Issued by NWS Charleston, WV

Home | Current Version | Previous Version | Graphics & Text | Print | Product List | Glossary On
Versions: 1 2 3 4 5 6 7 8 9 10 11 12 13 14 15 16 17 18 19 20 21 22 23 24 25 26 27 28 29 30 31 32 33 34 35 36 37 38 39 40 41 42 43 44 45 46 47 48 49 50
051
ASUS41 KRLX 250610
RWRRLX
West Virginia Regional Weather Roundup
National Weather Service Charleston WV
200 AM EDT FRI MAY 25 2018

Note: "fair" indicates few or no clouds below 12,000 feet with no
significant weather and/or obstructions to visibility.

WVZ003-250700-
Northern Panhandle of West Virginia

CITY           SKY/WX    TMP DP  RH WIND       PRES   REMARKS
WHEELING       FAIR      60  53  77 CALM      30.09F
$$

WVZ009-250700-
Northwest West Virginia

CITY           SKY/WX    TMP DP  RH WIND       PRES   REMARKS
PARKERSBURG    FAIR      60  57  89 CALM      30.10F
$$

WVZ006-250700-
Western West Virginia

CITY           SKY/WX    TMP DP  RH WIND       PRES   REMARKS
HUNTINGTON     FAIR      66  61  84 CALM      30.06F
$$

WVZ015-250700-
West Central West Virginia

CITY           SKY/WX    TMP DP  RH WIND       PRES   REMARKS
CHARLESTON     FAIR      65  64  97 CALM      30.08F
$$

WVZ022-031-250700-
North Central West Virginia

CITY           SKY/WX    TMP DP  RH WIND       PRES   REMARKS
CLARKSBURG     FAIR      61  53  75 CALM      30.11F
MORGANTOWN     FAIR      66  50  56 CALM      30.11F
$$

WVZ025-035-042-045-250700-
Southern West Virginia

CITY           SKY/WX    TMP DP  RH WIND       PRES   REMARKS
BECKLEY        FAIR      64  56  75 SE5       30.18F
LOGAN          FAIR      72  61  68 VRB3      30.12S
BLUEFIELD      FAIR      65  58  78 VRB3      30.20F
LEWISBURG      FAIR      57  55  94 NE3       30.20F
$$

WVZ047-250700-
Northern Mountains of West Virginia

CITY           SKY/WX    TMP DP  RH WIND       PRES   REMARKS
ELKINS         FAIR      56  53  90 CALM      30.16F
$$

WVZ052-250700-
Eastern Panhandle of West Virginia

CITY           SKY/WX    TMP DP  RH WIND       PRES   REMARKS
MARTINSBURG    FAIR      56  52  86 CALM      30.11F
PETERSBURG     FAIR      55  55  97 CALM      30.14F FOG
$$




USA.gov is the U.S. government's official web portal to all federal, state and local government web resources and services.